Location: ?????
(32.7281°N, 34.9563°E)
Time: 02:03:15
(UTC+00:00)

CRYOSAT 2 - Pass Details

Date: 29 October 2020
Orbit: 714 x 724 km, 92.0° (Epoch: 25 November)

Event Time Altitude Azimuth Distance (km) Brightness Sun altitude
Rises 16:07:52 0° 10° (N) 3,122 7.5 -16.5°
Reaches altitude 10° 16:10:12 10° 14° (NNE) 2,198 6.7 -17.0°
Maximum altitude 16:14:58 57° 93° (E) 839 4.3 -18.0°
Drops below altitude 10° 16:19:43 10° 172° (S) 2,186 6.8 -19.0°
Sets 16:22:01 0° 176° (S) 3,103 7.7 -19.5°
